sat.trackr.live / text

‹ back to catalog

KUWAITSAT-1

NORAD 55103 · 2023-001CY

PAYLOAD ACTIVE UNKNOWN

§ Identity

Operator
Country
KWT
Launch date
2023-01-03
Launch site
AFETR
Launch vehicle
Mass (kg)
RCS (m²)

External: N2YO · Heavens-Above · Gunter

§ Orbital elements

Epoch: 2026-05-25T03:27:01.454976Z

Period
92.99 min
Inclination
97.3253°
Eccentricity
0.0009428
Mean motion
15.48494996 rev/d
Perigee alt
414.7 km
Apogee alt
427.5 km
Semi-major
6,799.3 km
B*
3.9623e-4
RAAN
215.5998°
Arg perigee
151.4047°
Mean anomaly
208.7723°
Rev number
18,902

§ Raw data

KUWAITSAT-11 55103U 23001CY  26145.14376684  .00021035  00000+0  39623-3 0  99932 55103  97.3253 215.5998 0009428 151.4047 208.7723 15.48494996189027

JSON: /api/v1/satellites/55103 · /tle

For live sub-satellite position, see the globe view (requires WebGL).

§ Visibility from observer

Set your observer location to see the next 7 days of passes ≥ 10°. The values pass through the URL so the page stays shareable.

No JS? Fill the form by hand. The geolocation button needs JavaScript.